Other Public Products
Issued by NWS Charleston, SC

Home | Current Version | Previous Version | Text Only | Print | Product List | Glossary On
Versions: 1 2 3 4 5 6 7 8 9 10 11 12 13 14 15 16 17 18 19 20 21 22 23 24 25 26 27 28 29 30 31 32 33 34 35 36 37 38 39 40 41 42 43 44 45 46 47 48 49 50
000
FPUS82 KCHS 180712
OPUCHS

TEST...KCHS/KSAV Gateway Observations...TEST
National Weather Service Charleston SC
200 AM EST SAT NOV 18 2017

NOTE: "fair" indicates few or no clouds below 12,000 feet with no
significant weather and/or obstructions to visibility.

SCZ050-WAZ558-NCZ071-TXZ119-213-PAZ071-DCZ001-FLZ074-172-MI076-
NYZ176-178-MAZ016-IL014-TNZ027-NJZ106-GAZ044-MD014-180800-

...Gateway Observations for Charleston International...

CITY           SKY/WX    TMP DP  RH WIND       PRES   REMARKS
Chas Airport   CLEAR     43  42  97 CALM      30.10F
Seattle        CLOUDY    45  38  76 S10       30.30R
Charlotte      PTCLDY    43  36  76 SE7       30.09F
Dallas DFW     PTCLDY    74  64  71 SW16      29.68S
Dallas Love    PTCLDY    74  64  71 S10G22    29.69F
Philladelphia  CLOUDY    36  27  69 CALM      30.06F
Wash National  CLOUDY    39  35  86 S7        30.06F WCI  34
Baltimore      CLOUDY    33  29  85 SW3       30.04F
Miami          PTCLDY    70  60  70 NW3       30.00F
Detroit        RAIN      41  40  96 S8        29.64F FOG
Newark         PTCLDY    35  19  52 W5        30.05S WCI  31
Laguardia      PTCLDY    39  18  42 NW6       30.05R WCI  35
J F K          PTCLDY    36  17  46 CALM      30.06S
Boston Logan   CLEAR     32  15  49 W9        29.99S WCI  24
Ft. Lauderdale MOCLDY    68  61  78 N5        29.99F
Chicago O`Hare LGT RAIN  47  45  93 N3        29.56S FOG
Chicago Midway CLOUDY    48  47  96 NW5       29.55S FOG
Houston Bush   PTCLDY    72  68  87 S9        29.87F
Houston Hobby  CLEAR     70  69  97 S9        29.87F
Nashville      MOCLDY    59  39  47 S13       29.87F
Atlanta        PTCLDY    49  43  80 SE5       30.04F

$$

GAZ044-118-TXZ119-213-NCZ071-DCZ001-MDZ014-506-PAZ021-071-NJZ106-
NYZ176-178-MAZ106-OHZ011-021-055-MIZ076-KYZ091-ILZ014-INZ047-
MNZ060-ONZ431-180800-

...Gateway Observations for Savannah International...

CITY           SKY/WX    TMP DP  RH WIND       PRES   REMARKS
Savannah Arpt  CLEAR     49  47  93 N6        30.10S
Atlanta        PTCLDY    49  43  80 SE5       30.04F
Charlotte      PTCLDY    43  36  76 SE7       30.09F
Dallas DFW     PTCLDY    74  64  71 SW16      29.68S
Houston Bush   PTCLDY    72  68  87 S9        29.87F
Wash National  CLOUDY    39  35  86 S7        30.06F WCI  34
Wash Dulles    CLOUDY    33  28  81 S6        30.03F WCI  28
Baltimore      CLOUDY    33  29  85 SW3       30.04F
Philadelphia   CLOUDY    36  27  69 CALM      30.06F
Newark         PTCLDY    35  19  52 W5        30.05S WCI  31
Laguardia      PTCLDY    39  18  42 NW6       30.05R WCI  35
J F K          PTCLDY    36  17  46 CALM      30.06S
Boston         CLEAR     32  15  49 W9        29.99S WCI  24
Pittsburg      CLOUDY    35  28  75 SE3       29.81F
Akron          CLOUDY    43  28  55 S10       29.75F
Cleveland      LGT RAIN  46  32  58 S13G21    29.77R
Cincinnati     CLOUDY    55  40  56 S16G26    29.70F
Columbus       LGT RAIN  47  34  60 S12       29.73F
Detroit        RAIN      41  40  96 S8        29.64F FOG
Chicago O`Hare LGT RAIN  47  45  93 N3        29.56S FOG
Minneapolis    CLOUDY    36  35  96 N7        29.68F WCI  30
Indianapolis   CLOUDY    52  45  77 S9        29.63F
Toronto Canada MOCLDY    39  34  81 SE9       29.74F WCI  33

$$




USA.gov is the U.S. government's official web portal to all federal, state and local government web resources and services.